Dewpoint
41 41 43 44 48 50 52 54 56 55 55 59 65 66 66 65 65 64 66 65 65 65 65 66 65 63 61 61 62 61 61 59
39 41 43 43 45 45 47 51 54 53 54 55 59 58 62 64 64 65 66 66 66 66 64 65 66 63 62 62 61 61 60 60
38 40 43 43 44 44 43 45 47 49 51 52 55 57 59 62 63 64 64 64 67 66 65 64 64 63 63 63 63 60 59 59
37 38 41 42 44 45 44 44 45 46 46 46 50 53 53 54 54 56 61 64 64 66 66 65 64 64 63 62 62 62 59 60
37 37 39 40 42 43 43 45 45 44 46 45 46 46 46 49 50 51 52 54 61 63 64 66 66 64 63 63 62 62 61 59
34 36 36 39 42 44 45 42 41 43 45 46 44 45 44 44 45 47 48 49 52 52 56 63 66 65 65 63 63 63 62 61
31 33 35 35 41 44 44 43 42 42 42 43 45 43 44 44 45 44 45 45 45 50 50 52 54 64 65 65 63 63 63 62
30 30 30 35 38 41 39 38 39 42 43 42 42 43 43 44 45 45 44 45 45 45 46 51 52 55 60 66 65 64 64 62
30 30 33 33 37 39 41 38 38 39 41 42 42 42 41 42 44 43 43 45 44 46 45 47 48 53 55 57 66 66 65 64
30 30 33 35 37 39 42 39 36 39 39 41 42 42 42 41 43 42 42 43 41 44 46 45 47 49 52 55 56 63 65 65
29 30 33 34 36 37 43 41 37 38 40 41 39 42 42 42 42 42 42 41 42 43 43 45 45 47 50 52 52 51 54 64
29 30 32 33 35 35 37 37 37 39 40 40 41 40 41 42 42 43 42 42 42 42 42 42 43 44 47 51 50 49 49 50
29 30 31 32 32 32 32 34 34 36 35 38 40 41 39 39 40 41 42 42 42 42 42 42 42 43 44 45 46 46 46 45
29 28 30 30 31 31 30 32 32 32 31 33 37 38 38 38 38 40 40 40 41 42 41 42 41 43 42 45 44 43 44 44
27 28 30 30 30 30 29 31 31 31 30 31 35 36 37 37 38 38 38 39 39 39 39 41 42 42 43 43 42 42 42 42
26 28 29 30 30 29 28 30 30 30 30 30 34 35 35 36 37 37 38 38 38 38 39 39 39 41 40 41 42 42 41 41
25 26 27 28 26 26 27 29 30 31 30 30 31 33 33 35 36 37 37 37 37 38 38 38 38 37 37 39 39 39 40 41
26 27 28 27 26 27 28 29 30 30 30 29 30 31 32 33 34 34 35 36 37 36 36 36 37 37 36 37 36 37 39 41
29 30 29 27 26 28 29 28 29 30 30 30 30 31 31 32 33 34 35 35 34 34 34 35 35 34 36 36 35 36 36 37
Lifted_Index
8 9 9 8 7 4 2 0 -1 -2 -2 -3 -3 -3 -3 -3 -3 -2 -2 -1 -1 -1 -1 -1 -1 -1 -0 -0 -0 0 1 1
9 9 9 9 8 7 5 3 2 0 -1 -2 -2 -2 -3 -3 -3 -2 -2 -2 -1 -1 -1 -1 -1 -1 -0 -0 -0 0 0 1
9 10 10 10 10 9 8 7 6 4 2 0 -1 -2 -2 -3 -3 -3 -2 -2 -2 -2 -1 -1 -1 -1 -0 -0 -0 0 0 0
10 10 10 10 10 11 10 10 9 8 6 4 2 0 -1 -2 -2 -3 -3 -2 -2 -2 -2 -2 -1 -1 -0 0 0 0 0 0
10 10 11 11 11 11 11 11 11 10 9 8 6 4 2 0 -1 -2 -2 -3 -2 -2 -2 -2 -2 -1 -1 -0 0 0 0 1
10 10 11 11 12 12 12 12 12 12 11 10 9 7 5 4 2 0 -1 -2 -2 -2 -2 -2 -2 -2 -2 -1 -1 -0 0 0
10 11 12 12 12 12 13 13 13 13 13 12 11 10 8 7 6 3 1 -0 -1 -2 -2 -2 -2 -2 -2 -2 -2 -1 -1 -0
11 11 12 12 12 13 13 14 14 14 14 13 13 12 11 10 9 7 5 4 3 2 1 -0 -1 -2 -3 -3 -2 -2 -2 -1
10 11 11 12 12 12 13 13 13 14 14 13 13 13 13 12 12 11 10 8 7 7 6 4 1 -1 -2 -3 -3 -3 -2 -2
10 10 11 11 11 11 12 12 13 13 13 13 13 13 13 13 13 12 12 11 10 9 9 8 5 2 0 -1 -2 -3 -3 -3
9 10 10 10 11 11 11 12 12 13 13 13 13 13 13 13 12 12 12 12 11 10 10 10 9 7 4 2 0 -1 -2 -2
9 9 10 10 10 11 11 12 12 12 12 12 12 12 12 12 12 12 12 12 12 11 10 10 10 9 8 6 4 2 0 -0
8 9 9 10 10 11 12 12 12 12 12 12 12 12 12 12 12 12 12 12 12 12 11 11 10 10 10 9 9 7 5 4
8 9 9 10 10 11 12 12 12 13 13 13 12 12 12 12 12 12 12 12 13 13 12 12 11 10 10 10 10 10 9 8
8 9 9 10 11 11 12 12 12 13 13 13 13 12 12 12 12 12 12 12 13 13 13 13 12 12 11 10 10 9 9 10
8 9 9 10 11 12 12 12 13 13 13 13 13 13 13 13 13 12 12 12 13 13 13 13 13 13 13 12 11 10 9 9
9 9 9 10 11 12 12 13 13 13 13 13 13 13 13 13 13 13 13 13 13 13 13 13 13 14 14 14 13 12 10 9
9 9 10 11 12 12 12 13 13 13 13 13 14 14 14 14 14 14 14 14 14 14 14 14 14 14 14 14 14 14 12 12
9 9 10 11 12 12 13 13 13 13 13 14 14 14 14 14 14 14 14 14 14 14 14 14 14 14 14 14 15 15 14 14